Погода в Ветрино

Беларусь     55°24′34″N   28°28′19″E
темп.,
°C
ветер,
м/с
пор.,
м/с
влажн.,
%
обл.,
%
осадки,
мм/ч
давл.,
гПа
погр.,
м
17 апреля, сб
сб1700:00+9св41192100 0.5 1018459
03:00+9всв41192100 2.2 1019582
06:00+8св4119276 0.0 1019561
09:00+9всв4989100 0.0 1020750
12:00+11всв3783100 0.1 1021935
15:00+13всв566899 0.2 10211267
18:00+13всв48739 0.3 1020966
21:00+9св289466 0.4 1021216
18 апреля, вс
вс1800:00+10ссв3108696 0.0 1021317
03:00+7св4119163 0.0 1021375
06:00+6св3119042 0.0 1021329
09:00+9св596766 0.0 1021510
12:00+13всв57505 0.0 10211098
15:00+15всв57370 0.0 10211619
18:00+14всв46435 0.0 10211845
21:00+9св26675 0.0 1022110
19 апреля, пн
пн1900:00+7всв22795 0.0 102342
03:00+6в248935 0.0 102479
06:00+7всв398197 0.0 1024489
09:00+8всв3780100 0.0 1024626
12:00+10всв4762100 0.1 10241456
15:00+12в4654100 0.3 10241536
18:00+10всв3664100 0.1 1023707
21:00+8в387778 0.3 1023590
20 апреля, вт
вт2000:00+6всв2789100 0.0 1023296
03:00+6всв378497 0.1 1021480
06:00+5всв2586100 0.2 1020610
09:00+5всв367895 0.4 1019845
12:00+7всв3567100 0.1 10181225
15:00+8всв4560100 0.1 10171433
18:00+7всв3568100 0.1 10151071
21:00+4св3690100 0.1 1014605
21 апреля, ср
ср2100:00+4ссв3696100 0.0 1012535
03:00+4с3797100 0.3 1009521
06:00+4ссз4995100 0.5 1007826
09:00+3ссз41097100 2.2 1005730
12:00+4сз4897100 3.1 1005811
15:00+4зсз4997100 5.9 1005873
18:00+5зсз3997100 2.0 1007774
21:00+4зюз1197100 2.4 100947